Flag for U.S.A. Weather past 2 weeks in Mobile, Alabama, U.S.A.

Now
85 °F

Partly sunny.


Feels Like: 94 °F
Forecast: 73 / 91 °F
Wind: 5 mph from North

Location: Mobile Downtown Airport

Current Time: Sep 4, 2015 at 10:36:53 AM

Latest Report: Sep 4, 2015 at 9:53 AM


Visibility: 10 mi

Pressure: 30.02 "Hg

Humidity: 75%

Dew point: 76 °F

Location of MobileLocation

Historic Weather in Mobile — Graph

°F

Mobile temperature yesterday

Maximum temperature yesterday: 91 °F (at 1:53 PM)
Minimum temperature yesterday: 76 °F (at 3:53 AM)
Average temperature yesterday: 82 °F

Past Weeks' High & Low Weather Summary

 TemperatureHumidityPressure
High96 °F (Aug 23, 2:53 PM)100% (Aug 22, 6:53 AM)30.11 "Hg (Aug 22, 6:53 AM)
Low62 °F (Aug 26, 6:53 AM)32% (Aug 25, 5:53 PM)29.93 "Hg (Aug 24, 5:53 PM)
Average81 °F72%30.02 "Hg
* Reported Aug 20 8:53 AM — Sep 4 8:53 AM, Mobile, Weather by CustomWeather, © 2015

Note: Actual official high and low records may vary slightly from our data, if they occured in-between our weather recording intervals... More about our weather records

Advertising

Mobile weather history for previous 24 hours

 ConditionsComfort  
Time TempWeatherWind HumidityBarometerVisibility
8:53 AM
Fri, Sep 4
83 °FPassing clouds.3 mph77%30.02 "Hg10 mi
7:53 AM79 °FScattered clouds.5 mph88%30.02 "Hg10 mi
6:53 AM74 °FPassing clouds.No wind97%30.01 "Hg10 mi
5:53 AM72 °FClear.3 mph97%29.99 "Hg7 mi
4:53 AM73 °FClear.5 mph97%29.98 "Hg10 mi
3:53 AM73 °FClear.3 mph97%29.97 "Hg10 mi
2:53 AM74 °FClear.No wind97%29.96 "Hg10 mi
1:53 AM76 °FClear.3 mph94%29.96 "Hg10 mi
12:53 AM75 °FClear.No wind96%29.97 "Hg10 mi
11:53 PM
Thu, Sep 3
77 °FClear.No wind90%29.97 "Hg10 mi
10:53 PM78 °FClear.5 mph87%29.97 "Hg10 mi
9:53 PM78 °FClear.No wind90%29.97 "Hg10 mi
8:53 PM79 °FClear.3 mph84%29.96 "Hg10 mi
7:53 PM81 °FSunny.3 mph77%29.93 "Hg10 mi
6:53 PM83 °FSunny.3 mph70%29.93 "Hg10 mi
5:53 PM85 °FSunny.No wind61%29.94 "Hg10 mi
4:53 PM88 °FSunny.7 mph52%29.94 "Hg10 mi
3:53 PM89 °FSunny.12 mph61%29.95 "Hg10 mi
2:53 PM87 °FSunny.9 mph69%29.98 "Hg10 mi
1:53 PM91 °FSunny.12 mph54%29.99 "Hg10 mi
12:53 PM89 °FScattered clouds.8 mph55%30.01 "Hg10 mi
11:53 AM87 °FScattered clouds.8 mph67%30.02 "Hg10 mi
10:53 AM86 °FSunny.7 mph67%30.03 "Hg10 mi
Weather by CustomWeather, © 2015

See weather overviewHow to use our weather pages